Location: Aulus
(42.7909°N, 1.3399°E)
Time: 22:12:23
(UTC+00:00)

Cosmos 2154 Rocket - Pass Details

Date: 19 May 2025
Orbit: 965 x 996 km, 82.9° (Epoch: 12 June)

Event Time Altitude Azimuth Distance (km) Brightness Sun altitude
Rises 19:51:13 0° 356° (N) 3,663 7.6 -6.5°
Reaches altitude 10° 19:53:50 10° 2° (N) 2,712 6.8 -6.9°
Maximum altitude 19:59:50 50° 77° (ENE) 1,215 4.3 -7.8°
Drops below altitude 10° 20:05:50 10° 152° (SSE) 2,705 5.8 -8.7°
Enters shadow 20:06:35 - 154° (SSE) 2,977 6.0 -8.8°
